SCP
0 0 0 0 0 0 0 0 0 0 0 0 0 0 0 0 0 0 0 0 0 0 0 1 1 1 0 0 0 0 0 0 0 0 0 0 0 0 0 0 0 0 0 0 0 0 0 0 0
0 0 0 0 0 0 0 0 0 0 0 0 0 0 0 0 0 0 0 0 0 0 1 1 1 1 1 1 0 0 0 0 0 0 0 0 0 0 0 0 0 0 0 0 0 0 0 0 0
0 0 0 0 0 0 0 0 0 0 0 0 0 0 0 0 0 0 0 0 0 0 0 1 1 1 1 1 1 0 0 0 0 0 0 0 0 0 0 0 0 0 0 0 0 0 0 0 0
0 0 0 0 0 0 0 0 0 0 0 0 0 0 0 0 0 0 0 0 0 0 0 1 1 1 1 1 1 1 1 1 1 1 1 0 0 0 0 0 0 0 0 0 0 0 0 0 0
0 0 0 0 0 0 0 0 0 0 0 0 0 0 0 0 0 0 0 0 0 0 0 1 1 1 1 1 1 1 1 1 1 1 1 1 1 0 0 0 0 0 0 0 0 0 0 0 0
0 0 0 0 0 0 0 0 0 0 0 0 0 0 0 0 0 0 0 0 0 0 0 1 1 1 1 1 1 1 1 1 1 1 1 1 1 0 0 0 0 0 0 0 0 0 0 0 0
0 0 0 0 0 0 0 0 0 0 0 0 0 0 0 0 0 0 0 0 0 0 0 1 1 1 1 1 1 1 1 1 1 1 1 1 1 0 0 0 0 0 0 0 0 0 0 0 0
0 0 0 0 0 0 0 0 0 0 0 0 0 0 0 0 0 0 0 0 0 0 0 1 1 1 1 1 1 1 1 1 1 1 1 1 0 0 0 0 0 0 0 0 0 0 0 0 0
0 0 0 0 0 0 0 0 0 0 0 0 0 0 0 0 0 0 0 0 0 0 0 1 1 1 1 1 1 1 1 1 1 1 0 0 0 0 0 0 0 0 0 0 0 0 0 0 0
0 0 0 0 0 0 0 0 0 0 0 0 0 0 0 0 0 0 0 0 0 0 0 1 1 1 1 1 1 1 1 1 1 1 0 0 0 0 0 0 0 0 0 0 0 0 0 0 0
0 0 0 0 0 0 0 0 0 0 0 0 0 0 0 0 0 0 0 0 0 0 0 0 0 1 1 1 1 1 1 1 1 1 0 0 0 0 0 0 0 0 0 0 0 0 0 0 0
0 0 0 0 0 0 0 0 0 0 0 0 0 0 0 0 0 0 0 0 0 0 0 0 0 0 1 1 1 1 1 1 1 1 0 0 0 0 0 0 0 0 0 0 0 0 0 0 0
0 0 0 0 0 0 0 0 0 0 0 0 0 0 0 0 0 0 0 0 0 0 0 0 0 0 0 0 0 0 0 0 1 1 0 0 0 0 0 0 0 0 0 0 0 0 0 0 0
0 0 0 0 0 0 0 0 0 0 0 0 0 0 0 0 0 0 0 0 0 0 0 0 0 0 0 0 0 0 0 0 0 0 0 0 0 0 0 0 0 0 0 0 0 0 0 0 0
0 0 0 0 0 0 0 0 0 0 0 0 0 0 0 0 0 0 0 0 0 0 0 0 0 0 0 0 0 0 0 0 0 0 0 0 0 0 0 0 0 0 0 0 0 0 0 0 0
0 0 0 0 0 0 0 0 0 0 0 0 0 0 0 0 0 0 0 0 0 0 0 0 0 0 0 0 0 0 0 0 0 0 0 0 0 0 0 0 0 0 0 0 0 0 0 0 0
0 0 0 0 0 0 0 0 0 0 0 0 0 0 0 0 0 0 0 0 0 0 0 0 0 0 0 0 0 0 0 0 0 0 0 0 0 0 0 0 0 0 0 0 0 0 0 0 0
0 0 0 0 0 0 0 0 0 0 0 0 0 0 0 0 0 0 0 0 0 0 0 0 0 0 0 0 0 0 0 0 0 0 0 0 0 0 0 0 0 0 0 0 0 0 0 0 0
0 0 0 0 0 0 0 0 0 0 0 0 0 0 0 0 0 0 0 0 0 0 0 0 0 0 0 0 0 0 0 0 0 0 0 0 0 0 0 0 0 0 0 0 0 0 0 0 0
0 0 0 0 0 0 0 0 0 0 0 0 0 0 0 0 0 0 0 0 0 0 0 0 0 0 0 0 0 0 0 0 0 0 0 0 0 0 0 0 0 0 0 0 0 0 0 0 0
0 0 0 0 0 0 0 0 0 0 0 0 0 0 0 0 0 0 0 0 0 0 0 0 0 0 0 0 0 0 0 0 0 0 0 0 0 0 0 0 0 0 0 0 0 0 0 0 0
0 0 0 0 0 0 0 0 0 0 0 0 0 0 0 0 0 0 0 0 0 0 0 0 0 0 0 0 0 0 0 0 0 0 0 0 0 0 0 0 0 0 0 0 0 0 0 0 0
0 0 0 0 0 0 0 0 0 0 0 0 0 0 0 0 0 0 0 0 0 0 0 0 0 0 0 0 0 0 0 0 0 0 0 0 0 0 0 0 0 0 0 0 0 0 0 0 0
0 0 0 0 0 0 0 0 0 0 0 0 0 0 0 0 0 0 0 0 0 0 0 0 0 0 0 0 0 0 0 0 0 0 0 0 0 0 0 0 0 0 0 0 0 0 0 0 0
0 0 0 0 0 0 0 0 0 0 0 0 0 0 0 0 0 0 0 0 0 0 0 0 0 0 0 0 0 0 0 0 0 0 0 0 0 0 0 0 0 0 0 0 0 0 0 0 0
0 0 0 0 0 0 0 0 0 0 0 0 0 0 0 0 0 0 0 0 0 0 0 0 0 0 0 0 0 0 0 0 0 0 0 0 0 0 0 0 0 0 0 0 0 0 0 0 0
0 0 0 0 0 0 0 0 0 0 0 0 0 0 0 0 0 0 0 0 0 0 0 0 0 0 0 0 0 0 0 0 0 0 0 0 0 0 0 0 0 0 0 0 0 0 0 0 0
0 0 0 0 0 0 0 0 0 0 0 0 0 0 0 0 0 0 0 0 0 0 0 0 0 0 0 0 0 0 0 0 0 0 0 0 0 0 0 0 0 0 0 0 0 0 0 0 0
0 0 0 0 0 0 0 0 0 0 0 0 0 0 0 0 0 0 0 0 0 0 0 0 0 0 0 0 0 0 0 0 0 0 0 0 0 0 0 0 0 0 0 0 0 0 0 0 0
0 0 0 0 0 0 0 0 0 0 0 0 0 0 0 0 0 0 0 0 0 0 0 0 0 0 0 0 0 0 0 0 0 0 0 0 0 0 0 0 0 0 0 0 0 0 0 0 0
Wind_Speed
10 10 6 3 3 4 2 6 5 6 5 5 4 3 4 4 3 3 4 3 5 9 14 15 14 15 15 13 12 11 11 11 11 11 11 10 10 10 10 10 10 10 8 8 7 7 7 6 7
8 6 4 3 3 3 5 6 5 6 3 2 2 2 4 1 5 5 5 3 5 9 13 13 14 15 15 14 14 13 12 12 11 11 11 11 11 10 9 9 9 9 8 7 7 7 6 6 6
7 6 3 3 3 4 5 5 6 4 3 1 3 1 1 3 3 4 4 6 5 7 11 13 15 15 16 15 15 14 12 12 12 12 13 12 11 10 9 8 7 7 7 7 7 7 6 6 6
5 3 3 3 4 3 3 5 7 5 2 3 2 5 2 5 3 5 4 6 6 6 7 13 16 15 16 16 16 15 13 12 12 13 14 14 12 11 9 7 7 6 6 6 6 6 7 6 6
3 3 3 5 3 3 3 5 3 4 3 2 1 5 2 4 8 7 5 6 6 7 6 12 15 14 14 15 16 15 14 13 12 13 14 14 13 11 9 8 7 6 5 5 6 6 6 6 6
3 3 3 4 3 4 4 5 2 4 2 0 1 5 0 6 7 6 6 5 6 7 7 10 13 12 12 13 14 13 13 13 13 14 15 14 13 12 10 8 8 7 6 6 6 6 6 6 6
3 3 4 5 4 1 4 3 3 5 7 4 2 4 1 4 5 4 4 5 5 7 7 7 10 11 11 11 12 12 12 12 13 14 14 13 12 12 10 9 9 8 7 7 7 7 6 6 6
4 3 5 4 3 2 4 2 1 3 6 2 1 4 2 3 3 2 1 3 4 5 7 6 8 10 10 9 12 13 13 12 12 13 12 12 12 11 10 9 9 9 9 9 8 8 7 7 6
3 3 4 4 3 3 3 0 3 2 5 6 4 6 3 8 6 4 3 3 4 4 6 7 7 9 10 9 12 12 12 12 12 11 12 11 6 6 7 8 10 10 10 10 10 9 8 7 5
2 3 5 5 5 6 7 7 7 5 7 8 7 9 8 8 6 6 6 7 8 8 7 6 7 7 8 8 7 7 7 8 8 7 8 6 5 5 7 9 11 10 10 11 11 10 9 6 3
4 5 6 7 6 5 6 7 7 8 9 9 9 8 7 3 5 7 8 8 9 9 10 9 8 8 7 5 5 5 5 5 7 8 9 7 5 4 4 4 5 6 8 5 7 7 3 3 3
5 6 7 6 4 2 5 7 7 9 11 10 11 11 9 8 7 7 7 8 7 7 9 12 10 8 8 6 5 5 4 5 6 7 8 7 4 4 4 4 4 4 3 4 5 3 3 3 3
6 7 8 6 4 4 6 9 10 14 14 12 11 9 8 8 7 7 8 7 7 7 6 9 11 10 8 7 6 6 5 5 5 5 7 7 5 5 4 4 5 5 4 5 5 4 4 4 3
4 6 9 9 10 8 8 10 7 13 11 9 7 7 7 8 8 6 5 5 5 7 7 6 9 10 9 8 6 6 5 5 5 6 7 8 6 6 5 5 5 5 5 5 5 5 5 4 3
2 6 10 12 13 6 3 7 8 10 6 7 7 8 9 7 6 6 5 5 4 2 3 5 5 8 9 8 7 5 5 5 5 5 7 8 7 7 6 5 5 5 6 6 5 5 4 4 3
5 5 6 6 3 6 5 7 8 7 8 11 12 10 8 6 7 10 13 13 12 11 8 3 0 3 6 7 6 5 4 5 4 4 5 8 8 7 6 5 5 5 6 6 5 5 4 4 4
6 7 9 8 3 5 5 7 8 9 10 13 14 11 5 5 12 15 16 15 14 13 12 9 5 1 1 3 4 4 3 4 3 4 4 6 8 7 6 5 5 6 5 5 6 5 5 5 4
6 8 9 9 6 4 7 9 9 9 11 14 12 7 4 12 14 14 15 14 12 12 11 11 9 6 3 1 1 1 1 1 2 3 4 6 6 6 5 4 5 6 5 5 6 6 4 5 5
8 10 11 11 10 10 9 9 8 9 13 15 9 3 10 14 13 14 14 12 12 12 13 13 12 10 6 3 2 1 0 0 0 1 2 4 5 6 5 4 5 5 6 6 7 6 7 5 5
7 9 11 11 7 5 8 11 10 13 14 10 3 6 11 13 13 14 13 12 13 13 13 13 13 12 9 5 3 2 2 2 1 2 2 2 3 4 4 5 4 5 5 6 7 6 6 4 6
9 9 8 8 8 6 10 9 10 7 6 1 10 15 14 14 13 11 12 12 12 13 13 12 14 14 12 10 5 4 4 4 3 2 1 1 2 2 3 4 4 5 6 6 7 8 10 6 6
8 5 4 5 5 4 4 8 7 10 4 8 13 12 12 11 10 10 10 11 11 11 10 11 12 13 13 11 9 7 4 3 3 1 1 2 2 1 2 3 4 5 5 6 7 8 7 7 8
3 2 2 6 6 7 6 9 8 8 6 9 10 11 10 9 9 9 9 9 9 9 9 9 11 13 13 12 11 8 6 5 4 4 3 2 1 2 2 3 3 4 5 6 6 7 8 6 6
3 4 8 8 3 5 6 7 5 2 8 10 9 9 9 8 8 7 7 6 7 8 8 9 11 12 12 12 11 11 9 8 7 6 4 2 1 2 3 4 4 4 4 6 7 7 9 8 7
2 1 3 3 3 6 2 3 5 2 7 12 13 10 8 7 6 6 6 6 6 8 8 9 11 11 11 11 10 11 10 9 8 7 6 5 2 2 4 4 4 5 5 5 6 6 7 9 9
2 1 2 4 4 5 5 7 4 5 8 11 11 10 8 7 6 5 5 5 5 7 7 8 9 9 10 10 9 9 9 7 6 7 6 6 5 4 4 4 5 6 6 6 5 5 6 7 9
1 2 1 2 5 6 7 6 2 6 8 8 9 8 7 6 5 5 5 5 5 6 7 8 8 8 8 8 8 8 8 8 7 7 7 6 6 7 8 7 5 5 6 6 6 5 6 6 7
3 1 2 2 4 6 7 7 5 3 8 8 7 6 5 4 4 4 4 4 4 5 5 6 7 7 7 7 7 6 6 7 7 6 7 7 8 8 8 8 7 6 5 6 6 6 6 7 7
5 4 5 4 5 5 5 6 3 6 9 9 6 5 4 3 3 3 3 3 4 4 4 4 4 4 5 5 5 5 5 6 6 6 7 7 7 8 8 8 8 7 7 6 6 7 7 8 8
6 7 6 7 8 6 7 7 6 7 6 6 5 5 4 2 2 2 2 2 3 3 2 2 2 2 2 3 4 4 4 5 5 6 7 7 8 8 8 8 8 8 7 7 6 7 8 8 9
Wind_Direction
270 258 260 270 252 233 258 67 50 27 40 32 11 338 325 310 1 75 164 158 141 139 143 160 161 163 163 161 159 159 162 163 162 160 155 147 139 132 124 116 109 104 102 100 99 97 91 82 73
291 288 268 248 259 291 74 68 64 53 41 353 293 253 284 317 88 108 135 155 140 138 146 166 162 165 165 164 164 167 170 172 172 168 161 150 142 135 129 121 117 115 114 112 109 104 96 85 75
280 272 267 264 272 346 30 47 41 31 86 23 307 258 316 4 66 87 110 152 150 144 151 164 162 169 168 169 170 173 177 180 180 174 165 154 147 139 134 130 126 125 123 120 115 109 98 83 71
281 242 238 252 291 5 14 20 25 345 101 137 309 303 167 120 73 94 129 154 157 152 158 159 165 174 173 173 175 179 183 186 187 179 169 160 154 148 145 141 138 134 130 123 117 110 98 85 71
235 259 252 255 250 58 38 41 17 311 325 110 335 301 345 98 108 124 147 163 164 156 163 155 170 178 180 180 181 184 188 192 192 183 173 164 159 156 155 157 155 150 144 132 121 109 99 89 77
265 270 281 299 24 61 71 54 333 296 328 64 193 291 83 128 134 141 142 172 180 160 162 151 175 179 186 187 188 190 193 195 194 185 175 169 165 162 163 167 167 164 157 148 134 120 108 95 82
289 293 289 312 322 3 95 83 325 337 325 348 26 308 211 106 90 114 148 183 197 163 159 157 174 186 191 194 194 195 199 201 195 184 175 170 169 168 167 169 173 172 168 158 143 134 122 105 88
313 291 270 270 293 344 107 115 303 299 298 3 29 277 25 125 105 101 184 206 208 175 165 181 175 187 193 196 200 199 199 199 192 183 174 168 169 169 168 169 174 177 173 161 151 144 134 116 98
293 268 267 285 315 341 79 213 302 238 258 276 227 236 248 160 152 169 198 226 227 212 183 188 194 189 191 192 197 197 197 194 186 179 171 163 165 164 163 174 175 178 170 161 159 153 136 124 115
239 258 269 326 351 351 353 343 329 305 285 282 269 239 228 172 180 199 214 218 211 212 208 199 206 201 192 192 185 188 191 189 186 175 168 172 175 173 170 183 175 174 161 161 164 155 144 149 152
224 242 295 325 357 6 333 309 292 280 271 272 292 317 327 283 230 223 226 228 226 207 198 200 204 203 197 191 181 179 184 183 190 187 173 175 179 167 158 147 159 160 151 150 149 141 173 194 149
249 272 281 290 331 342 301 296 295 273 268 278 286 286 284 279 270 257 249 236 231 227 202 192 195 198 199 195 192 184 182 186 188 191 177 170 173 168 158 150 159 158 156 152 142 156 179 151 124
245 267 274 292 309 284 277 274 279 271 266 267 269 275 280 278 272 259 246 234 221 227 226 191 188 195 195 197 197 195 194 190 189 183 181 174 173 172 166 165 165 167 163 158 149 159 159 154 156
323 328 313 296 267 242 244 268 272 269 271 274 282 286 278 272 269 270 265 250 230 219 220 210 189 190 191 196 201 200 199 192 189 187 186 182 176 169 169 175 171 168 161 152 149 159 157 162 152
11 298 281 257 246 225 192 271 246 262 298 308 297 289 293 305 325 337 351 355 343 318 224 207 204 187 190 197 200 201 198 192 192 189 187 187 183 173 170 174 174 167 152 146 147 153 149 151 151
238 246 264 262 171 116 143 248 280 333 341 311 295 293 298 323 7 27 29 26 18 13 10 357 127 184 192 194 196 199 197 195 191 183 185 189 188 178 170 172 175 165 150 148 155 155 152 158 155
233 238 250 274 185 142 187 246 274 297 296 285 285 289 299 30 44 41 35 29 23 16 11 8 11 23 224 199 189 192 195 197 187 178 178 182 185 183 171 172 171 162 153 156 164 160 155 159 157
253 277 300 310 318 280 234 247 261 275 281 280 285 303 45 65 53 43 36 27 23 17 15 14 13 16 23 44 128 152 200 203 180 168 169 168 175 180 169 166 170 162 157 167 169 166 167 150 146
285 292 289 287 287 284 281 285 294 287 283 283 291 20 81 74 57 46 37 26 22 21 20 19 17 12 20 40 60 77 10 216 109 105 128 152 160 172 172 166 172 167 173 181 174 163 158 146 137
295 291 287 287 291 314 296 283 277 268 265 273 307 68 79 69 51 41 34 27 24 22 21 23 18 14 14 21 45 67 53 48 78 87 83 101 140 169 176 176 177 174 176 187 187 172 160 155 164
268 266 277 294 322 294 279 270 251 260 245 27 70 75 69 64 53 40 32 26 23 23 22 25 20 18 14 15 28 44 42 32 31 44 70 96 127 172 188 192 186 183 185 199 200 190 178 170 191
274 284 312 320 318 280 304 291 240 249 237 90 81 76 71 65 60 48 37 30 26 20 18 27 26 23 18 17 25 34 36 30 12 19 90 127 150 195 227 220 212 197 195 208 212 206 205 171 182
262 28 299 272 262 271 248 258 270 225 140 102 94 86 79 71 64 55 44 35 27 21 21 24 31 29 22 20 23 25 25 19 9 14 28 49 144 212 251 260 246 228 209 212 218 212 215 208 192
337 306 262 241 224 262 240 236 292 24 137 132 112 98 88 81 71 63 55 42 29 24 26 27 32 30 22 23 24 25 20 14 12 5 353 339 271 222 231 252 262 259 241 221 221 217 216 223 220
208 286 330 313 208 229 25 285 267 98 116 134 126 111 97 86 77 65 54 46 36 29 29 32 33 29 20 20 23 22 16 14 16 6 353 346 329 276 232 224 237 253 256 246 231 225 221 221 228
188 189 217 258 265 302 340 262 265 95 83 97 106 105 100 93 87 78 65 53 46 40 34 35 36 29 21 17 16 19 16 13 11 5 0 354 346 332 314 253 231 239 252 257 247 238 230 226 230
305 236 298 267 291 283 256 249 143 122 116 109 106 101 96 95 90 84 73 57 46 46 44 40 37 29 21 14 10 16 12 9 9 6 3 358 350 344 342 329 290 254 247 252 256 249 240 234 232
219 333 55 178 241 247 258 267 280 172 143 123 114 111 108 104 95 85 74 65 52 47 49 50 47 31 17 11 7 12 7 3 0 3 3 356 348 346 341 337 325 303 271 253 252 255 247 242 239
196 190 204 220 225 236 255 262 61 79 132 140 135 130 127 117 106 94 84 76 65 51 48 52 55 42 16 3 352 356 1 358 356 359 356 347 343 341 340 333 327 318 302 279 261 254 252 248 246
257 250 240 242 244 242 258 263 68 85 98 128 150 157 151 149 129 115 103 89 77 56 39 51 60 67 13 345 336 339 350 353 351 349 343 338 336 334 331 328 324 318 310 295 275 263 255 250 248